Regional Weather Roundup
Issued by NWS

Home | Current Version | Previous Version | Text Only | Print | Product List | Glossary Off
Versions: 1 2 3 4 5 6 7 8 9 10 11 12 13 14 15 16 17 18 19 20 21 22 23 24 25 26 27 28 29 30 31 32 33 34 35 36 37 38 39 40 41 42 43 44 45 46 47 48 49 50

000
ASUS43 KDTX 311801
RWRMI
MICHIGAN HOURLY REGIONAL WEATHER ROUNDUP
NATIONAL WEATHER SERVICE DETROIT/PONTIAC MI
200 PM EDT THU JUL 31 2014

NOTE: "FAIR" INDICATES FEW OR NO CLOUDS BELOW 12,000 FEET WITH NO
SIGNIFICANT WEATHER AND/OR OBSTRUCTION TO VISIBILITY.

MIZ047>049-052>055-059>063-066>070-074>076-081>083-311900-
SOUTHEAST LOWER MICHIGAN

CITY           SKY/WX    TMP DP  RH WIND       PRES   REMARKS
ALMA           CLOUDY    74  57  54 W13       30.01S
ANN ARBOR      MOSUNNY   78  54  43 W15G21    30.04F
BAD AXE        PTSUNNY   73  59  61 W13G18    29.99S
6HR MIN TEMP:  56; 6HR MAX TEMP:  74;

CARO           MOSUNNY   75  62  62 SW8       29.99F
DETROIT CITY   PTSUNNY   78  54  43 W12G20    30.02F
6HR MIN TEMP:  60; 6HR MAX TEMP:  79;

DETROIT        PTSUNNY   77  57  50 SW14      30.04S
6HR MIN TEMP:  58; 6HR MAX TEMP:  77;

FLINT          PTSUNNY   77  57  50 W14       30.01F
6HR MIN TEMP:  57; 6HR MAX TEMP:  78;

GROSSE ILE     PTSUNNY   73  59  60 SW7       30.03S
HILLSDALE      MOSUNNY   77  57  50 SW9G16    30.05F
HOWELL         PTSUNNY   74  56  54 SW13      30.03S
6HR MIN TEMP:  54; 6HR MAX TEMP:  75;


CITY           SKY/WX    TMP DP  RH WIND       PRES   REMARKS
JACKSON        MOSUNNY   77  57  50 SW13G18   30.04S
6HR MIN TEMP:  56; 6HR MAX TEMP:  78;

LAMBERTVILLE   MOSUNNY   79  54  41 SW12G17   30.05F
LANSING        MOSUNNY   76  58  53 W12G22    30.02F
6HR MIN TEMP:  58; 6HR MAX TEMP:  76;

LAPEER         MOCLDY    73  56  54 W10G16    30.02S
MASON          CLOUDY    75  58  53 SW12G17   30.03S
MONROE         MOSUNNY   77  55  47 W10       30.03S
MT. CLEMENS    MOSUNNY   77  57  49 SW15G21   30.01S
6HR MIN TEMP:  58; 6HR MAX TEMP:  77;

PONTIAC        PTSUNNY   74  56  53 W12G21    30.02F
6HR MIN TEMP:  57; 6HR MAX TEMP:  75;

PORT HOPE        N/A     73  56  54 VRB7      29.97S
6HR MIN TEMP:  58; 6HR MAX TEMP:  73;

PORT HURON     CLOUDY    73  57  56 S8        30.01F
TRI CITIES     PTSUNNY   75  57  53 W8        30.00F
6HR MIN TEMP:  58; 6HR MAX TEMP:  77;

TROY           PTSUNNY   75  54  47 W12G17    30.03F
SAGINAW HB     MOSUNNY   77  54  44 W9        29.99F
$$
MIZ043>046-050>051-056>058-064>065-071>073-077>080-311900-
SOUTHWEST LOWER MICHIGAN

CITY           SKY/WX    TMP DP  RH WIND       PRES   REMARKS
BATTLE CREEK   MOSUNNY   78  59  51 SW15      30.04S
6HR MIN TEMP:  59; 6HR MAX TEMP:  78;

BENTON HARBOR  SUNNY     76  56  49 W16       30.05S
6HR MIN TEMP:  58; 6HR MAX TEMP:  77;

BIG RAPIDS     MOSUNNY   75  55  49 W7        30.00S
6HR MIN TEMP:  53; 6HR MAX TEMP:  76;

COLDWATER      CLOUDY    78  60  54 W15G21    30.04F
6HR MIN TEMP:  58; 6HR MAX TEMP:  78;

FREMONT        MOCLDY    77  56  48 W9        30.00S
HOLLAND        SUNNY     74  61  63 SW12      30.04S
6HR MIN TEMP:  65; 6HR MAX TEMP:  75;

GRAND RAPIDS   MOSUNNY   79  61  53 SW14      30.02S
6HR MIN TEMP:  59; 6HR MAX TEMP:  79;

IONIA          MOCLDY    76  58  54 W14       30.01S
KALAMAZOO      PTSUNNY   78  58  49 W16       30.04S
6HR MIN TEMP:  59; 6HR MAX TEMP:  79;

LUDINGTON      SUNNY     69  58  68 SW8       30.01S
6HR MIN TEMP:  57; 6HR MAX TEMP:  69;

MARSHALL       CLOUDY    76  59  57 MISG      30.03F
MOUNT PLEASANT MOSUNNY   76  55  48 W7        29.99F
6HR MIN TEMP:  57; 6HR MAX TEMP:  76;

MUSKEGON       MOSUNNY   72  58  61 SW10      30.02F
6HR MIN TEMP:  61; 6HR MAX TEMP:  72;

SOUTH HAVEN    SUNNY     72  61  67 W9        30.05S
$$
MIZ016>042-311900-
NORTHERN LOWER MICHIGAN

CITY           SKY/WX    TMP DP  RH WIND       PRES   REMARKS
ALPENA         MOSUNNY   75  52  44 NW9       29.95S
6HR MIN TEMP:  56; 6HR MAX TEMP:  75;

BEAVER ISLAND  MOSUNNY   68  59  72 SW15G21   29.95F
6HR MIN TEMP:  55; 6HR MAX TEMP:  69;

BELLAIRE       SUNNY     75  51  42 SW8       29.96S
6HR MIN TEMP:  55; 6HR MAX TEMP:  75;

CHARLEVOIX     SUNNY     74  54  49 SW12G18   29.99S
6HR MIN TEMP:  59; 6HR MAX TEMP:  75;

FRANKFORT      SUNNY     69  57  64 SW7       30.00S
GAYLORD        SUNNY     72  47  40 W10G21    29.97S
6HR MIN TEMP:  52; 6HR MAX TEMP:  73;

GRAYLING       MOSUNNY   74  46  36 NW8G17    29.99S
6HR MIN TEMP:  54; 6HR MAX TEMP:  76;

HARBOR SPRINGS SUNNY     73  50  45 W10       29.96S
HOUGHTON LAKE  SUNNY     74  49  41 SW8       29.99S
6HR MIN TEMP:  57; 6HR MAX TEMP:  74;

MANISTEE       SUNNY     72  57  60 W12       30.00S
OSCODA         MOSUNNY   74  49  41 NW9       29.95S
PELLSTON       SUNNY     74  50  42 W10       29.95R
6HR MIN TEMP:  55; 6HR MAX TEMP:  75;

ROGERS CITY    MOSUNNY   75  55  50 SW10      29.94S
TRAVERSE CITY  PTSUNNY   76  50  40 VRB7      29.95S
6HR MIN TEMP:  57; 6HR MAX TEMP:  78;

$$
MIZ007>008-015-311900-
EASTERN UPPER MICHIGAN

CITY           SKY/WX    TMP DP  RH WIND       PRES   REMARKS
KINROSS        CLOUDY    70  55  60 SW9       29.91S
6HR MIN TEMP:  55; 6HR MAX TEMP:  72;

MACKINAC ISLAN MOSUNNY   67  58  71 SW15      29.93S
6HR MIN TEMP:  58; 6HR MAX TEMP:  68;

NEWBERRY       CLOUDY    65  58  77 W5        29.91S
S. S. MARIE    PTSUNNY   71  54  54 W12       29.90F
6HR MIN TEMP:  55; 6HR MAX TEMP:  73;

$$
MIZ004>006-011>014-085-311900-
CENTRAL UPPER MICHIGAN

CITY           SKY/WX    TMP DP  RH WIND       PRES   REMARKS
MANISTIQUE     PTSUNNY   67  60  78 SW14      29.93S
ESCANABA       MOSUNNY   72  59  64 S9        29.93S
6HR MIN TEMP:  52; 6HR MAX TEMP:  72; 6HR PCP:  0.01;

MENOMINEE      MOSUNNY   75  55  50 NW5       29.94F
6HR MIN TEMP:  54; 6HR MAX TEMP:  75;

SAWYER-GWINN   MOSUNNY   72  54  53 E5        29.93F
$$
MIZ001>003-009>011-084-311900-
WESTERN UPPER MICHIGAN

CITY           SKY/WX    TMP DP  RH WIND       PRES   REMARKS
IRON MOUNTAIN  MOSUNNY   77  50  38 W15G21    29.95F
6HR MIN TEMP:  53; 6HR MAX TEMP:  77;

HOUGHTON       SUNNY     70  51  51 W12       29.93F
6HR MIN TEMP:  57; 6HR MAX TEMP:  71;

COPPER HARBOR    N/A     67  56  67 N13       29.91F
6HR MIN TEMP:  60; 6HR MAX TEMP:  67;

$$

ABBREVIATIONS USED IN REMARKS
   TC - TEMPERATURE IN CELSIUS
  WCI - WIND CHILL INDEX
   HX - HEAT INDEX
  VSB - VISIBILITY




USA.gov is the U.S. government's official web portal to all federal, state and local government web resources and services.